Year,Month,Day,Hour,Minute,Value (Times are PST for temperature in C)
2014,08,26,00,00,17.00
2014,08,26,00,01,17.00
2014,08,26,00,02,17.00
2014,08,26,00,03,17.00
2014,08,26,00,04,17.00
2014,08,26,00,05,17.00
2014,08,26,00,06,17.00
2014,08,26,00,07,17.00
2014,08,26,00,08,16.90
2014,08,26,00,09,16.90
2014,08,26,00,10,16.90
2014,08,26,00,11,16.90
2014,08,26,00,12,16.90
2014,08,26,00,13,16.90
2014,08,26,00,14,16.90
2014,08,26,00,15,16.90
2014,08,26,00,16,16.90
2014,08,26,00,17,16.90
2014,08,26,00,18,16.90
2014,08,26,00,19,16.90
2014,08,26,00,20,16.90
2014,08,26,00,21,16.90
2014,08,26,00,22,16.90
2014,08,26,00,23,16.80
2014,08,26,00,24,16.80
2014,08,26,00,25,16.80
2014,08,26,00,26,16.80
2014,08,26,00,27,16.80
2014,08,26,00,28,16.80
2014,08,26,00,29,16.80
2014,08,26,00,30,16.80
2014,08,26,00,31,16.80
2014,08,26,00,32,16.80
2014,08,26,00,33,16.80
2014,08,26,00,34,16.80
2014,08,26,00,35,16.80
2014,08,26,00,36,16.80
2014,08,26,00,37,16.80
2014,08,26,00,38,16.80
2014,08,26,00,39,16.80
2014,08,26,00,40,16.80
2014,08,26,00,41,16.70
2014,08,26,00,42,16.70
2014,08,26,00,43,16.70
2014,08,26,00,44,16.70
2014,08,26,00,45,16.70
2014,08,26,00,46,16.70
2014,08,26,00,47,16.70
2014,08,26,00,48,16.70
2014,08,26,00,49,16.70
2014,08,26,00,50,16.70
2014,08,26,00,51,16.70
2014,08,26,00,52,16.70
2014,08,26,00,53,16.70
2014,08,26,00,54,16.70
2014,08,26,00,55,16.70
2014,08,26,00,56,16.70
2014,08,26,00,57,16.70
2014,08,26,00,58,16.70
2014,08,26,00,59,16.70
2014,08,26,01,00,16.70
2014,08,26,01,01,16.70
2014,08,26,01,02,16.70
2014,08,26,01,03,16.70
2014,08,26,01,04,16.60
2014,08,26,01,05,16.60
2014,08,26,01,06,16.60
2014,08,26,01,07,16.60
2014,08,26,01,08,16.60
2014,08,26,01,09,16.60
2014,08,26,01,10,16.60
2014,08,26,01,11,16.60
2014,08,26,01,12,16.60
2014,08,26,01,13,16.60
2014,08,26,01,14,16.60
2014,08,26,01,15,16.60
2014,08,26,01,16,16.60
2014,08,26,01,17,16.60
2014,08,26,01,18,16.60
2014,08,26,01,19,16.60
2014,08,26,01,20,16.60
2014,08,26,01,21,16.60
2014,08,26,01,22,16.60
2014,08,26,01,23,16.60
2014,08,26,01,24,16.60
2014,08,26,01,25,16.60
2014,08,26,01,26,16.60
2014,08,26,01,27,16.50
2014,08,26,01,28,16.50
2014,08,26,01,29,16.50
2014,08,26,01,30,16.50
2014,08,26,01,31,16.50
2014,08,26,01,32,16.50
2014,08,26,01,33,16.50
2014,08,26,01,34,16.50
2014,08,26,01,35,16.50
2014,08,26,01,36,16.50
2014,08,26,01,37,16.50
2014,08,26,01,38,16.40
2014,08,26,01,39,16.40
2014,08,26,01,40,16.40
2014,08,26,01,41,16.40
2014,08,26,01,42,16.50
2014,08,26,01,43,16.50
2014,08,26,01,44,16.40
2014,08,26,01,49,16.40
2014,08,26,01,50,16.40
2014,08,26,01,51,16.40
2014,08,26,01,52,16.40
2014,08,26,01,53,16.40
2014,08,26,01,54,16.40
2014,08,26,01,55,16.40
2014,08,26,01,56,16.40
2014,08,26,01,57,16.40
2014,08,26,01,58,16.40
2014,08,26,01,59,16.40
2014,08,26,02,00,16.40
2014,08,26,02,01,16.40
2014,08,26,02,02,16.40
2014,08,26,02,03,16.40
2014,08,26,02,04,16.40
2014,08,26,02,05,16.30
2014,08,26,02,06,16.30
2014,08,26,02,07,16.30
2014,08,26,02,08,16.30
2014,08,26,02,09,16.30
2014,08,26,02,10,16.30
2014,08,26,02,11,16.30
2014,08,26,02,12,16.30
2014,08,26,02,13,16.30
2014,08,26,02,14,16.30
2014,08,26,02,15,16.30
2014,08,26,02,16,16.30
2014,08,26,02,17,16.30
2014,08,26,02,18,16.30
2014,08,26,02,19,16.30
2014,08,26,02,20,16.30
2014,08,26,02,21,16.30
2014,08,26,02,22,16.30
2014,08,26,02,23,16.30
2014,08,26,02,24,16.30
2014,08,26,02,25,16.30
2014,08,26,02,26,16.30
2014,08,26,02,27,16.30
2014,08,26,02,28,16.30
2014,08,26,02,29,16.30
2014,08,26,02,30,16.30
2014,08,26,02,31,16.30
2014,08,26,02,32,16.30
2014,08,26,02,33,16.30
2014,08,26,02,34,16.30
2014,08,26,02,35,16.30
2014,08,26,02,36,16.30
2014,08,26,02,37,16.30
2014,08,26,02,38,16.30
2014,08,26,02,39,16.30
2014,08,26,02,40,16.30
2014,08,26,02,41,16.30
2014,08,26,02,42,16.30
2014,08,26,02,43,16.30
2014,08,26,02,44,16.30
2014,08,26,02,45,16.30
2014,08,26,02,46,16.30
2014,08,26,02,47,16.30
2014,08,26,02,48,16.30
2014,08,26,02,49,16.30
2014,08,26,02,50,16.30
2014,08,26,02,51,16.30
2014,08,26,02,52,16.30
2014,08,26,02,53,16.30
2014,08,26,02,54,16.30
2014,08,26,02,55,16.30
2014,08,26,02,56,16.20
2014,08,26,02,57,16.20
2014,08,26,02,58,16.20
2014,08,26,02,59,16.20
2014,08,26,03,00,16.20
2014,08,26,03,01,16.20
2014,08,26,03,02,16.20
2014,08,26,03,03,16.20
2014,08,26,03,04,16.20
2014,08,26,03,05,16.20
2014,08,26,03,06,16.20
2014,08,26,03,07,16.20
2014,08,26,03,08,16.20
2014,08,26,03,09,16.20
2014,08,26,03,10,16.20
2014,08,26,03,11,16.20
2014,08,26,03,12,16.20
2014,08,26,03,13,16.20
2014,08,26,03,14,16.10
2014,08,26,03,15,16.10
2014,08,26,03,16,16.10
2014,08,26,03,17,16.10
2014,08,26,03,18,16.20
2014,08,26,03,19,16.20
2014,08,26,03,20,16.20
2014,08,26,03,21,16.20
2014,08,26,03,22,16.20
2014,08,26,03,23,16.20
2014,08,26,03,24,16.20
2014,08,26,03,25,16.20
2014,08,26,03,26,16.20
2014,08,26,03,27,16.20
2014,08,26,03,28,16.20
2014,08,26,03,29,16.20
2014,08,26,03,30,16.20
2014,08,26,03,31,16.20
2014,08,26,03,32,16.20
2014,08,26,03,33,16.20
2014,08,26,03,34,16.20
2014,08,26,03,35,16.10
2014,08,26,03,36,16.20
2014,08,26,03,37,16.20
2014,08,26,03,38,16.20
2014,08,26,03,39,16.10
2014,08,26,03,40,16.10
2014,08,26,03,41,16.10
2014,08,26,03,42,16.10
2014,08,26,03,43,16.10
2014,08,26,03,44,16.10
2014,08,26,03,45,16.10
2014,08,26,03,46,16.10
2014,08,26,03,47,16.10
2014,08,26,03,48,16.10
2014,08,26,03,49,16.10
2014,08,26,03,50,16.10
2014,08,26,03,51,16.10
2014,08,26,03,52,16.10
2014,08,26,03,53,16.10
2014,08,26,03,54,16.10
2014,08,26,03,55,16.10
2014,08,26,03,56,16.10
2014,08,26,03,57,16.10
2014,08,26,03,58,16.10
2014,08,26,03,59,16.10
2014,08,26,04,00,16.10
2014,08,26,04,01,16.10
2014,08,26,04,02,16.10
2014,08,26,04,03,16.10
2014,08,26,04,04,16.10
2014,08,26,04,05,16.00
2014,08,26,04,06,16.00
2014,08,26,04,07,16.10
2014,08,26,04,08,16.10
2014,08,26,04,09,16.10
2014,08,26,04,10,16.10
2014,08,26,04,11,16.10
2014,08,26,04,12,16.10
2014,08,26,04,13,16.10
2014,08,26,04,14,16.10
2014,08,26,04,15,16.10
2014,08,26,04,16,16.10
2014,08,26,04,17,16.10
2014,08,26,04,18,16.10
2014,08,26,04,19,16.10
2014,08,26,04,20,16.10
2014,08,26,04,21,16.10
2014,08,26,04,22,16.10
2014,08,26,04,23,16.10
2014,08,26,04,24,16.20
2014,08,26,04,25,16.20
2014,08,26,04,26,16.20
2014,08,26,04,27,16.20
2014,08,26,04,28,16.20
2014,08,26,04,29,16.20
2014,08,26,04,30,16.20
2014,08,26,04,31,16.20
2014,08,26,04,32,16.20
2014,08,26,04,33,16.20
2014,08,26,04,34,16.20
2014,08,26,04,35,16.20
2014,08,26,04,36,16.20
2014,08,26,04,37,16.20
2014,08,26,04,38,16.20
2014,08,26,04,39,16.10
2014,08,26,04,40,16.20
2014,08,26,04,41,16.20
2014,08,26,04,42,16.20
2014,08,26,04,43,16.20
2014,08,26,04,44,16.20
2014,08,26,04,45,16.20
2014,08,26,04,46,16.20
2014,08,26,04,47,16.20
2014,08,26,04,48,16.20
2014,08,26,04,49,16.20
2014,08,26,04,50,16.20
2014,08,26,04,51,16.20
2014,08,26,04,52,16.10
2014,08,26,04,53,16.10
2014,08,26,04,54,16.10
2014,08,26,04,55,16.20
2014,08,26,04,56,16.10
2014,08,26,04,57,16.20
2014,08,26,04,58,16.20
2014,08,26,04,59,16.20
2014,08,26,05,00,16.20
2014,08,26,05,01,16.20
2014,08,26,05,02,16.20
2014,08,26,05,03,16.20
2014,08,26,05,04,16.20
2014,08,26,05,05,16.20
2014,08,26,05,06,16.20
2014,08,26,05,07,16.20
2014,08,26,05,08,16.20
2014,08,26,05,09,16.20
2014,08,26,05,10,16.30
2014,08,26,05,11,16.30
2014,08,26,05,12,16.30
2014,08,26,05,13,16.30
2014,08,26,05,14,16.30
2014,08,26,05,15,16.30
2014,08,26,05,16,16.40
2014,08,26,05,17,16.40
2014,08,26,05,18,16.40
2014,08,26,05,19,16.40
2014,08,26,05,20,16.40
2014,08,26,05,21,16.40
2014,08,26,05,22,16.40
2014,08,26,05,23,16.40
2014,08,26,05,24,16.40
2014,08,26,05,25,16.40
2014,08,26,05,26,16.40
2014,08,26,05,27,16.40
2014,08,26,05,28,16.40
2014,08,26,05,29,16.40
2014,08,26,05,30,16.40
2014,08,26,05,31,16.40
2014,08,26,05,32,16.40
2014,08,26,05,33,16.40
2014,08,26,05,34,16.40
2014,08,26,05,35,16.40
2014,08,26,05,36,16.40
2014,08,26,05,37,16.40
2014,08,26,05,38,16.40
2014,08,26,05,39,16.40
2014,08,26,05,40,16.40
2014,08,26,05,41,16.40
2014,08,26,05,42,16.40
2014,08,26,05,43,16.40
2014,08,26,05,44,16.40
2014,08,26,05,45,16.40
2014,08,26,05,46,16.40
2014,08,26,05,47,16.40
2014,08,26,05,48,16.40
2014,08,26,05,49,16.30
2014,08,26,05,50,16.30
2014,08,26,05,51,16.30
2014,08,26,05,52,16.30
2014,08,26,05,53,16.30
2014,08,26,05,54,16.30
2014,08,26,05,55,16.30
2014,08,26,05,56,16.30
2014,08,26,05,57,16.30
2014,08,26,05,58,16.30
2014,08,26,05,59,16.30
2014,08,26,06,00,16.30
2014,08,26,06,01,16.30
2014,08,26,06,02,16.30
2014,08,26,06,03,16.30
2014,08,26,06,04,16.40
2014,08,26,06,05,16.30
2014,08,26,06,06,16.30
2014,08,26,06,07,16.30
2014,08,26,06,08,16.30
2014,08,26,06,09,16.40
2014,08,26,06,10,16.30
2014,08,26,06,11,16.30
2014,08,26,06,12,16.30
2014,08,26,06,13,16.30
2014,08,26,06,14,16.30
2014,08,26,06,15,16.30
2014,08,26,06,16,16.30
2014,08,26,06,17,16.30
2014,08,26,06,18,16.30
2014,08,26,06,19,16.30
2014,08,26,06,20,16.30
2014,08,26,06,21,16.30
2014,08,26,06,22,16.30
2014,08,26,06,23,16.30
2014,08,26,06,24,16.30
2014,08,26,06,25,16.30
2014,08,26,06,26,16.30
2014,08,26,06,27,16.30
2014,08,26,06,28,16.30
2014,08,26,06,29,16.30
2014,08,26,06,30,16.30
2014,08,26,06,31,16.30
2014,08,26,06,32,16.30
2014,08,26,06,33,16.30
2014,08,26,06,34,16.20
2014,08,26,06,35,16.20
2014,08,26,06,36,16.20
2014,08,26,06,37,16.20
2014,08,26,06,38,16.20
2014,08,26,06,39,16.20
2014,08,26,06,40,16.20
2014,08,26,06,41,16.20
2014,08,26,06,42,16.20
2014,08,26,06,43,16.20
2014,08,26,06,44,16.20
2014,08,26,06,45,16.20
2014,08,26,06,46,16.20
2014,08,26,06,47,16.20
2014,08,26,06,48,16.20
2014,08,26,06,49,16.10
2014,08,26,06,50,16.10
2014,08,26,06,51,16.10
2014,08,26,06,52,16.10
2014,08,26,06,53,16.10
2014,08,26,06,54,16.10
2014,08,26,06,55,16.10
2014,08,26,06,56,16.10
2014,08,26,06,57,16.10
2014,08,26,06,58,16.10
2014,08,26,06,59,16.10
2014,08,26,07,00,16.10
2014,08,26,07,01,16.10
2014,08,26,07,02,16.10
2014,08,26,07,03,16.10
2014,08,26,07,04,16.10
2014,08,26,07,05,16.00
2014,08,26,07,06,16.00
2014,08,26,07,07,16.00
2014,08,26,07,08,16.00
2014,08,26,07,09,16.00
2014,08,26,07,10,16.00
2014,08,26,07,11,16.00
2014,08,26,07,12,16.00
2014,08,26,07,13,16.00
2014,08,26,07,14,16.00
2014,08,26,07,15,16.00
2014,08,26,07,16,16.00
2014,08,26,07,17,16.00
2014,08,26,07,18,16.00
2014,08,26,07,19,16.00
2014,08,26,07,20,16.00
2014,08,26,07,21,16.10
2014,08,26,07,22,16.10
2014,08,26,07,23,16.10
2014,08,26,07,24,16.10
2014,08,26,07,25,16.10
2014,08,26,07,26,16.10
2014,08,26,07,27,16.10
2014,08,26,07,28,16.10
2014,08,26,07,29,16.10
2014,08,26,07,30,16.10
2014,08,26,07,31,16.20
2014,08,26,07,32,16.20
2014,08,26,07,33,16.20
2014,08,26,07,34,16.20
2014,08,26,07,35,16.20
2014,08,26,07,36,16.20
2014,08,26,07,37,16.20
2014,08,26,07,38,16.30
2014,08,26,07,39,16.30
2014,08,26,07,40,16.30
2014,08,26,07,41,16.30
2014,08,26,07,42,16.30
2014,08,26,07,43,16.30
2014,08,26,07,44,16.30
2014,08,26,07,45,16.40
2014,08,26,07,46,16.40
2014,08,26,07,47,16.40
2014,08,26,07,48,16.40
2014,08,26,07,49,16.40
2014,08,26,07,50,16.50
2014,08,26,07,51,16.50
2014,08,26,07,52,16.50
2014,08,26,07,53,16.50
2014,08,26,07,54,16.50
2014,08,26,07,55,16.60
2014,08,26,07,56,16.60
2014,08,26,07,57,16.60
2014,08,26,07,58,16.60
2014,08,26,07,59,16.60
2014,08,26,08,00,16.60
2014,08,26,08,01,16.70
2014,08,26,08,02,16.70
2014,08,26,08,03,16.70
2014,08,26,08,04,16.70
2014,08,26,08,05,16.70
2014,08,26,08,06,16.70
2014,08,26,08,07,16.80
2014,08,26,08,08,16.80
2014,08,26,08,09,16.80
2014,08,26,08,10,16.80
2014,08,26,08,11,16.80
2014,08,26,08,12,16.90
2014,08,26,08,13,16.90
2014,08,26,08,14,16.90
2014,08,26,08,15,16.90
2014,08,26,08,16,16.90
2014,08,26,08,17,16.90
2014,08,26,08,18,17.00
2014,08,26,08,19,17.00
2014,08,26,08,20,17.00
2014,08,26,08,21,17.10
2014,08,26,08,22,17.10
2014,08,26,08,23,17.10
2014,08,26,08,24,17.10
2014,08,26,08,25,17.10
2014,08,26,08,26,17.10
2014,08,26,08,27,17.20
2014,08,26,08,28,17.20
2014,08,26,08,29,17.20
2014,08,26,08,30,17.20
2014,08,26,08,31,17.20
2014,08,26,08,32,17.20
2014,08,26,08,33,17.30
2014,08,26,08,34,17.30
2014,08,26,08,35,17.30
2014,08,26,08,36,17.30
2014,08,26,08,37,17.30
2014,08,26,08,38,17.30
2014,08,26,08,39,17.30
2014,08,26,08,40,17.40
2014,08,26,08,41,17.40
2014,08,26,08,42,17.40
2014,08,26,08,43,17.40
2014,08,26,08,44,17.50
2014,08,26,08,45,17.50
2014,08,26,08,46,17.60
2014,08,26,08,47,17.60
2014,08,26,08,48,17.60
2014,08,26,08,49,17.70
2014,08,26,08,50,17.70
2014,08,26,08,51,17.80
2014,08,26,08,52,17.80
2014,08,26,08,53,17.90
2014,08,26,08,54,17.90
2014,08,26,08,55,17.90
2014,08,26,08,56,18.00
2014,08,26,08,57,18.10
2014,08,26,08,58,18.10
2014,08,26,08,59,18.10
2014,08,26,09,00,18.20
2014,08,26,09,01,18.20
2014,08,26,09,02,18.20
2014,08,26,09,03,18.30
2014,08,26,09,04,18.30
2014,08,26,09,05,18.40
2014,08,26,09,06,18.40
2014,08,26,09,07,18.40
2014,08,26,09,08,18.50
2014,08,26,09,09,18.50
2014,08,26,09,10,18.60
2014,08,26,09,11,18.70
2014,08,26,09,12,18.70
2014,08,26,09,13,18.70
2014,08,26,09,14,18.80
2014,08,26,09,15,18.80
2014,08,26,09,16,18.90
2014,08,26,09,17,18.90
2014,08,26,09,18,18.90
2014,08,26,09,19,19.00
2014,08,26,09,20,19.10
2014,08,26,09,21,19.10
2014,08,26,09,22,19.20
2014,08,26,09,23,19.30
2014,08,26,09,24,19.30
2014,08,26,09,25,19.40
2014,08,26,09,26,19.40
2014,08,26,09,27,19.50
2014,08,26,09,28,19.50
2014,08,26,09,29,19.60
2014,08,26,09,30,19.60
2014,08,26,09,31,19.70
2014,08,26,09,32,19.70
2014,08,26,09,33,19.70
2014,08,26,09,34,19.70
2014,08,26,09,35,19.80
2014,08,26,09,36,19.90
2014,08,26,09,37,19.90
2014,08,26,09,38,20.00
2014,08,26,09,39,20.00
2014,08,26,09,40,20.20
2014,08,26,09,41,20.20
2014,08,26,09,42,20.30
2014,08,26,09,43,20.30
2014,08,26,09,44,20.40
2014,08,26,09,45,20.50
2014,08,26,09,46,20.60
2014,08,26,09,47,20.70
2014,08,26,09,48,20.80
2014,08,26,09,49,20.80
2014,08,26,09,50,20.90
2014,08,26,09,51,21.00
2014,08,26,09,52,21.00
2014,08,26,09,53,21.10
2014,08,26,09,54,21.20
2014,08,26,09,55,21.30
2014,08,26,09,56,21.30
2014,08,26,09,57,21.40
2014,08,26,09,58,21.40
2014,08,26,09,59,21.50
2014,08,26,10,00,21.60
2014,08,26,10,01,21.60
2014,08,26,10,02,21.60
2014,08,26,10,03,21.60
2014,08,26,10,04,21.60
2014,08,26,10,05,21.60
2014,08,26,10,06,21.60
2014,08,26,10,07,21.70
2014,08,26,10,08,21.70
2014,08,26,10,09,21.70
2014,08,26,10,10,21.80
2014,08,26,10,11,21.80
2014,08,26,10,12,21.80
2014,08,26,10,13,21.70
2014,08,26,10,14,21.70
2014,08,26,10,15,21.70
2014,08,26,10,16,21.70
2014,08,26,10,17,21.70
2014,08,26,10,18,21.70
2014,08,26,10,19,21.80
2014,08,26,10,20,21.80
2014,08,26,10,21,21.90
2014,08,26,10,22,22.00
2014,08,26,10,23,22.10
2014,08,26,10,24,22.10
2014,08,26,10,25,22.20
2014,08,26,10,26,22.30
2014,08,26,10,27,22.30
2014,08,26,10,28,22.40
2014,08,26,10,29,22.50
2014,08,26,10,30,22.60
2014,08,26,10,31,22.70
2014,08,26,10,32,22.70
2014,08,26,10,33,22.80
2014,08,26,10,34,22.90
2014,08,26,10,35,23.00
2014,08,26,10,36,23.10
2014,08,26,10,37,23.10
2014,08,26,10,38,23.20
2014,08,26,10,39,23.20
2014,08,26,10,40,23.30
2014,08,26,10,41,23.30
2014,08,26,10,42,23.30
2014,08,26,10,43,23.20
2014,08,26,10,44,23.20
2014,08,26,10,45,23.10
2014,08,26,10,46,23.00
2014,08,26,10,47,23.00
2014,08,26,10,48,22.90
2014,08,26,10,49,22.90
2014,08,26,10,50,22.90
2014,08,26,10,51,22.90
2014,08,26,10,52,22.80
2014,08,26,10,53,22.70
2014,08,26,10,54,22.70
2014,08,26,10,55,22.60
2014,08,26,10,56,22.70
2014,08,26,10,57,22.70
2014,08,26,10,58,22.70
2014,08,26,10,59,22.80
2014,08,26,11,00,22.80
2014,08,26,11,01,22.80
2014,08,26,11,02,22.90
2014,08,26,11,03,23.00
2014,08,26,11,04,23.00
2014,08,26,11,05,23.10
2014,08,26,11,06,23.10
2014,08,26,11,07,23.20
2014,08,26,11,08,23.20
2014,08,26,11,09,23.20
2014,08,26,11,10,23.10
2014,08,26,11,11,23.00
2014,08,26,11,12,22.80
2014,08,26,11,13,22.70
2014,08,26,11,14,22.50
2014,08,26,11,15,22.50
2014,08,26,11,16,22.40
2014,08,26,11,17,22.30
2014,08,26,11,18,22.30
2014,08,26,11,19,22.10
2014,08,26,11,20,22.00
2014,08,26,11,21,21.90
2014,08,26,11,22,21.80
2014,08,26,11,23,21.70
2014,08,26,11,24,21.60
2014,08,26,11,25,21.50
2014,08,26,11,26,21.40
2014,08,26,11,27,21.40
2014,08,26,11,28,21.40
2014,08,26,11,29,21.40
2014,08,26,11,30,21.40
2014,08,26,11,31,21.40
2014,08,26,11,32,21.40
2014,08,26,11,33,21.40
2014,08,26,11,34,21.50
2014,08,26,11,35,21.60
2014,08,26,11,36,21.70
2014,08,26,11,37,21.80
2014,08,26,11,38,21.80
2014,08,26,11,39,22.00
2014,08,26,11,40,22.10
2014,08,26,11,41,22.20
2014,08,26,11,42,22.30
2014,08,26,11,43,22.40
2014,08,26,11,44,22.50
2014,08,26,11,45,22.50
2014,08,26,11,46,22.50
2014,08,26,11,47,22.60
2014,08,26,11,48,22.60
2014,08,26,11,49,22.70
2014,08,26,11,50,22.70
2014,08,26,11,51,22.70
2014,08,26,11,52,22.70
2014,08,26,11,53,22.70
2014,08,26,11,54,22.60
2014,08,26,11,55,22.60
2014,08,26,11,56,22.60
2014,08,26,11,57,22.70
2014,08,26,11,58,22.70
2014,08,26,11,59,22.70
2014,08,26,12,00,22.70
2014,08,26,12,01,22.60
2014,08,26,12,02,22.60
2014,08,26,12,03,22.60
2014,08,26,12,04,22.50
2014,08,26,12,05,22.50
2014,08,26,12,06,22.50
2014,08,26,12,07,22.50
2014,08,26,12,08,22.40
2014,08,26,12,09,22.40
2014,08,26,12,10,22.40
2014,08,26,12,11,22.40
2014,08,26,12,12,22.40
2014,08,26,12,13,22.40
2014,08,26,12,14,22.50
2014,08,26,12,15,22.50
2014,08,26,12,16,22.60
2014,08,26,12,17,22.70
2014,08,26,12,18,22.70
2014,08,26,12,19,22.80
2014,08,26,12,20,22.80
2014,08,26,12,21,22.80
2014,08,26,12,22,22.90
2014,08,26,12,23,22.90
2014,08,26,12,24,23.00
2014,08,26,12,25,23.00
2014,08,26,12,26,23.10
2014,08,26,12,27,23.20
2014,08,26,12,28,23.20
2014,08,26,12,29,23.10
2014,08,26,12,30,23.00
2014,08,26,12,31,23.00
2014,08,26,12,32,23.00
2014,08,26,12,33,22.90
2014,08,26,12,34,22.90
2014,08,26,12,35,22.90
2014,08,26,12,36,22.90
2014,08,26,12,37,23.00
2014,08,26,12,38,23.10
2014,08,26,12,39,23.00
2014,08,26,12,40,23.00
2014,08,26,12,41,22.90
2014,08,26,12,42,22.90
2014,08,26,12,43,22.80
2014,08,26,12,44,22.80
2014,08,26,12,45,22.80
2014,08,26,12,46,22.70
2014,08,26,12,47,22.70
2014,08,26,12,48,22.70
2014,08,26,12,49,22.70
2014,08,26,12,50,22.70
2014,08,26,12,51,22.70
2014,08,26,12,52,22.70
2014,08,26,12,53,22.70
2014,08,26,12,54,22.70
2014,08,26,12,55,22.80
2014,08,26,12,56,22.80
2014,08,26,12,57,22.90
2014,08,26,12,58,22.90
2014,08,26,12,59,23.00
2014,08,26,13,00,23.10
2014,08,26,13,01,23.20
2014,08,26,13,02,23.30
2014,08,26,13,03,23.40
2014,08,26,13,04,23.50
2014,08,26,13,05,23.60
2014,08,26,13,06,23.70
2014,08,26,13,07,23.90
2014,08,26,13,08,24.00
2014,08,26,13,09,24.20
2014,08,26,13,10,24.30
2014,08,26,13,11,24.50
2014,08,26,13,12,24.60
2014,08,26,13,13,24.70
2014,08,26,13,14,24.80
2014,08,26,13,15,24.80
2014,08,26,13,16,24.90
2014,08,26,13,17,24.90
2014,08,26,13,18,25.00
2014,08,26,13,19,25.10
2014,08,26,13,20,25.20
2014,08,26,13,21,25.20
2014,08,26,13,22,25.30
2014,08,26,13,23,25.30
2014,08,26,13,24,25.40
2014,08,26,13,25,25.40
2014,08,26,13,26,25.50
2014,08,26,13,27,25.50
2014,08,26,13,28,25.60
2014,08,26,13,29,25.60
2014,08,26,13,30,25.60
2014,08,26,13,31,25.60
2014,08,26,13,32,25.70
2014,08,26,13,33,25.70
2014,08,26,13,34,25.80
2014,08,26,13,38,25.90
2014,08,26,13,39,25.90
2014,08,26,13,40,25.90
2014,08,26,13,41,25.90
2014,08,26,13,42,25.90
2014,08,26,13,43,25.90
2014,08,26,13,44,26.00
2014,08,26,13,45,26.10
2014,08,26,13,46,26.20
2014,08,26,13,47,26.30
2014,08,26,13,48,26.30
2014,08,26,13,49,26.40
2014,08,26,13,50,26.40
2014,08,26,13,51,26.40
2014,08,26,13,52,26.30
2014,08,26,13,53,26.30
2014,08,26,13,54,26.30
2014,08,26,13,55,26.30
2014,08,26,13,56,26.20
2014,08,26,13,57,26.20
2014,08,26,13,58,26.20
2014,08,26,13,59,26.10
2014,08,26,14,00,25.90
2014,08,26,14,01,25.90
2014,08,26,14,02,25.90
2014,08,26,14,03,25.80
2014,08,26,14,04,25.80
2014,08,26,14,05,25.80
2014,08,26,14,06,25.80
2014,08,26,14,07,25.80
2014,08,26,14,08,25.90
2014,08,26,14,09,25.90
2014,08,26,14,10,25.90
2014,08,26,14,11,26.00
2014,08,26,14,12,26.10
2014,08,26,14,13,26.10
2014,08,26,14,14,26.20
2014,08,26,14,15,26.20
2014,08,26,14,16,26.20
2014,08,26,14,17,26.30
2014,08,26,14,18,26.30
2014,08,26,14,19,26.30
2014,08,26,14,20,26.40
2014,08,26,14,21,26.40
2014,08,26,14,22,26.40
2014,08,26,14,23,26.50
2014,08,26,14,24,26.50
2014,08,26,14,25,26.50
2014,08,26,14,26,26.50
2014,08,26,14,27,26.50
2014,08,26,14,28,26.40
2014,08,26,14,29,26.50
2014,08,26,14,30,26.50
2014,08,26,14,31,26.40
2014,08,26,14,32,26.30
2014,08,26,14,33,26.30
2014,08,26,14,34,26.30
2014,08,26,14,35,26.30
2014,08,26,14,36,26.30
2014,08,26,14,37,26.30
2014,08,26,14,38,26.20
2014,08,26,14,39,26.20
2014,08,26,14,40,26.20
2014,08,26,14,41,26.20
2014,08,26,14,42,26.10
2014,08,26,14,43,26.10
2014,08,26,14,44,26.10
2014,08,26,14,45,26.10
2014,08,26,14,46,26.20
2014,08,26,14,47,26.20
2014,08,26,14,48,26.20
2014,08,26,14,49,26.30
2014,08,26,14,50,26.30
2014,08,26,14,51,26.30
2014,08,26,14,52,26.40
2014,08,26,14,53,26.40
2014,08,26,14,54,26.50
2014,08,26,14,55,26.50
2014,08,26,14,56,26.60
2014,08,26,14,57,26.60
2014,08,26,14,58,26.50
2014,08,26,14,59,26.50
2014,08,26,15,00,26.40
2014,08,26,15,01,26.30
2014,08,26,15,02,26.20
2014,08,26,15,03,26.20
2014,08,26,15,04,26.20
2014,08,26,15,05,26.20
2014,08,26,15,06,26.30
2014,08,26,15,07,26.30
2014,08,26,15,08,26.40
2014,08,26,15,09,26.50
2014,08,26,15,10,26.50
2014,08,26,15,11,26.60
2014,08,26,15,12,26.70
2014,08,26,15,13,26.70
2014,08,26,15,14,26.70
2014,08,26,15,15,26.70
2014,08,26,15,16,26.70
2014,08,26,15,17,26.60
2014,08,26,15,18,26.60
2014,08,26,15,19,26.50
2014,08,26,15,20,26.50
2014,08,26,15,21,26.40
2014,08,26,15,22,26.40
2014,08,26,15,23,26.40
2014,08,26,15,24,26.40
2014,08,26,15,25,26.30
2014,08,26,15,26,26.30
2014,08,26,15,27,26.40
2014,08,26,15,28,26.50
2014,08,26,15,29,26.60
2014,08,26,15,30,26.70
2014,08,26,15,31,26.70
2014,08,26,15,32,26.80
2014,08,26,15,33,26.80
2014,08,26,15,34,26.80
2014,08,26,15,35,26.80
2014,08,26,15,36,26.90
2014,08,26,15,37,27.00
2014,08,26,15,38,27.00
2014,08,26,15,39,27.10
2014,08,26,15,40,27.10
2014,08,26,15,41,27.10
2014,08,26,15,42,27.10
2014,08,26,15,43,27.10
2014,08,26,15,44,27.00
2014,08,26,15,45,27.00
2014,08,26,15,46,26.90
2014,08,26,15,47,26.90
2014,08,26,15,48,26.80
2014,08,26,15,49,26.80
2014,08,26,15,50,26.80
2014,08,26,15,51,26.80
2014,08,26,15,52,26.80
2014,08,26,15,53,26.80
2014,08,26,15,54,26.80
2014,08,26,15,55,26.80
2014,08,26,15,56,26.90
2014,08,26,15,57,26.90
2014,08,26,15,58,27.00
2014,08,26,15,59,27.00
2014,08,26,16,00,27.10
2014,08,26,16,01,27.10
2014,08,26,16,02,27.00
2014,08,26,16,03,27.00
2014,08,26,16,04,27.00
2014,08,26,16,05,27.00
2014,08,26,16,06,27.00
2014,08,26,16,07,27.00
2014,08,26,16,08,27.00
2014,08,26,16,09,26.90
2014,08,26,16,10,26.90
2014,08,26,16,11,26.90
2014,08,26,16,12,26.80
2014,08,26,16,13,26.80
2014,08,26,16,14,26.70
2014,08,26,16,15,26.60
2014,08,26,16,16,26.60
2014,08,26,16,17,26.70
2014,08,26,16,18,26.70
2014,08,26,16,19,26.70
2014,08,26,16,20,26.70
2014,08,26,16,21,26.80
2014,08,26,16,22,26.80
2014,08,26,16,23,26.80
2014,08,26,16,24,26.90
2014,08,26,16,25,26.90
2014,08,26,16,26,26.90
2014,08,26,16,27,26.90
2014,08,26,16,28,26.90
2014,08,26,16,29,26.70
2014,08,26,16,30,26.50
2014,08,26,16,31,26.30
2014,08,26,16,32,26.10
2014,08,26,16,33,26.00
2014,08,26,16,34,25.90
2014,08,26,16,35,25.80
2014,08,26,16,36,25.70
2014,08,26,16,37,25.60
2014,08,26,16,38,25.50
2014,08,26,16,39,25.50
2014,08,26,16,40,25.40
2014,08,26,16,41,25.40
2014,08,26,16,42,25.40
2014,08,26,16,43,25.40
2014,08,26,16,44,25.30
2014,08,26,16,45,25.30
2014,08,26,16,46,25.30
2014,08,26,16,47,25.20
2014,08,26,16,48,25.20
2014,08,26,16,49,25.20
2014,08,26,16,50,25.20
2014,08,26,16,51,25.20
2014,08,26,16,52,25.20
2014,08,26,16,53,25.20
2014,08,26,16,54,25.20
2014,08,26,16,55,25.20
2014,08,26,16,56,25.30
2014,08,26,16,57,25.30
2014,08,26,16,58,25.40
2014,08,26,16,59,25.40
2014,08,26,17,00,25.50
2014,08,26,17,01,25.50
2014,08,26,17,02,25.50
2014,08,26,17,03,25.60
2014,08,26,17,04,25.60
2014,08,26,17,05,25.50
2014,08,26,17,06,25.50
2014,08,26,17,07,25.40
2014,08,26,17,08,25.40
2014,08,26,17,09,25.30
2014,08,26,17,10,25.30
2014,08,26,17,11,25.20
2014,08,26,17,12,25.20
2014,08,26,17,13,25.20
2014,08,26,17,14,25.20
2014,08,26,17,15,25.20
2014,08,26,17,16,25.20
2014,08,26,17,17,25.20
2014,08,26,17,18,25.20
2014,08,26,17,19,25.30
2014,08,26,17,20,25.30
2014,08,26,17,21,25.30
2014,08,26,17,22,25.40
2014,08,26,17,23,25.40
2014,08,26,17,24,25.40
2014,08,26,17,25,25.40
2014,08,26,17,26,25.50